Zurück zum Katalog

COSMOS 2251 DEB

AktivLEO
NORAD 40808·DEBRIS·🇷🇺 Russia

Gestartet Jun 16, 1993 von Plesetsk Cosmodrome

Loading…

Nächste Überflüge (nächste 24 Stunden)

TLE

AktuellSource: Space-Track

Epoche: Sep 13, 2026, 15:49 UTC

1 40808U 93036BWM 26256.65965888  .00004357  00000-0  70602-3 0  9994
2 40808  74.0418 332.7481 0010918 304.2739 207.9176 14.71507307676580

Verfolge COSMOS 2251 DEB in Echtzeit mit AllMySat

Download on the App Store